www.pogodaiklimat.ru
ПОГОДА в Маунт Стерлинг
Время
и дата
06:35 07.02
06:55 07.02
07:15 07.02
07:35 07.02
07:55 07.02
08:15 07.02
08:35 07.02
08:55 07.02
09:15 07.02
09:35 07.02
09:55 07.02
10:15 07.02
10:35 07.02
10:55 07.02
11:15 07.02
11:35 07.02
11:55 07.02
12:15 07.02
12:35 07.02
12:55 07.02
13:15 07.02
13:35 07.02
13:55 07.02
14:15 07.02
14:35 07.02
14:55 07.02
15:15 07.02
15:35 07.02
15:55 07.02
16:15 07.02
16:35 07.02
16:55 07.02
17:15 07.02
17:35 07.02
17:55 07.02
18:15 07.02
18:35 07.02
18:55 07.02
19:15 07.02
19:35 07.02
19:55 07.02
20:15 07.02
20:35 07.02
20:55 07.02
21:15 07.02
21:35 07.02
21:55 07.02
22:15 07.02
Ветер
(напр.,м/с)
Видим. Явления Облачность Т
(С)
Тd
(С)
f
(%)
Тe
(С)
Тes
(С)
Комфортность P
(гПа)
Po
(гПа)
Тmin
(С)
Tmax
(С)
R
(мм)
R24
(мм)
S
(см)
ЮЗ 4 16 км ясно +7.0 -1.0 57 +4 +4 984.1
ЮЗ 4 16 км ясно +7.0 -1.0 57 +4 +4 984.1
ЮЗ 5 16 км ясно +8.0 -1.0 53 +5 +5 983.8
ЮЗ 5
{9}
16 км ясно +8.0 -1.0 53 +5 +5 984.1
ЮЗ 5
{7}
16 км ясно +8.0 -1.0 53 +5 +5 984.4
ЮЗ 4
{9}
16 км ясно +10.0 -1.0 46 +8 +8 984.4
ЮЗ 4
{7}
16 км ясно +10.0 0.0 50 +8 +8 984.8
ЮЗ 5
{8}
16 км ясно +11.0 0.0 47 +9 +9 984.8
ЮЗ 5
{8}
16 км ясно +11.0 0.0 47 +9 +10 984.8
ЮЗ 5
{8}
16 км ясно +11.0 0.0 47 +9 +10 984.8
ЮЗ 7
{9}
16 км ясно +12.0 0.0 44 +9 +10 984.8
ЮЗ 8
{10}
16 км ясно +13.0 +1.0 44 +10 +11 985.1
ЮЗ 8
{11}
16 км ясно +13.0 +1.0 44 +10 +11 985.1
ЮЗ 7
{11}
16 км 5/5 1500 м +15.0 +1.0 39 +13 +14 985.1
ЮЗ 8
{13}
16 км 8/8 1500 м +15.0 +2.0 41 +13 +13 985.4
ЮЗ 7
{13}
16 км 5/5 1800 м +15.0 +2.0 41 +13 +14 985.4
ЮЗ 5
{14}
16 км ясно +16.0 +3.0 42 +15 +18 984.8
ЮЗ 9
{13}
16 км ясно +16.0 +3.0 42 +14 +15 984.8
ЮЗ 9
{13}
16 км ясно +16.0 +3.0 42 +14 +15 984.4
ЮЗ 8
{15}
16 км ясно +17.0 +4.0 42 +16 +17 984.1
ЮЗ 8
{14}
16 км ясно +17.0 +4.0 42 +16 +17 983.8
З 7
{13}
16 км ясно +17.0 +5.0 45 +16 +18 983.8
З 7
{12}
16 км ясно +17.0 +4.0 42 +16 +18 983.4
З 7
{11}
16 км 5/5 1500 м +18.0 +5.0 42 +17 +18 983.1
ЮЗ 9
{12}
16 км н/о +18.0 +5.0 42 +17 +17 982.8
ЮЗ 9
{12}
16 км ясно +18.0 +5.0 42 +17 +18 982.8
З 9
{11}
16 км ясно +18.0 +5.0 42 +17 +17 982.8
З 7
{10}
16 км ясно +17.0 +5.0 45 +16 +17 983.4
З 7
{11}
16 км 5/5 1650 м +17.0 +5.0 45 +16 +17 983.1
З 4
{9}
16 км ясно +17.0 +6.0 48 +17 +18 983.4
З 6
{9}
16 км ясно +18.0 +6.0 45 +17 +18 983.8
З 4
{7}
16 км ясно +17.0 +6.0 48 +17 +18 983.8
З 4
{9}
16 км ясно +17.0 +6.0 48 +17 +17 983.8
З 6 16 км ясно +16.0 +6.0 51 +15 +15 983.8
З 4
{8}
16 км 5/0 3300 m
[Ac]
+16.0 +6.0 51 +15 +16 984.1
З 3 16 км 8/0 3300 m
[Ac]
+16.0 +6.0 51 +16 +16 984.4
З 3 16 км 5/0 3300 m
[Ac]
+15.0 +6.0 55 +14 +14 984.8
З 3 16 км ясно +15.0 +7.0 59 +14 +14 984.8
З 3 16 км 5/0 3600 m
[Ac]
+15.0 +7.0 59 +14 +14 985.1
З 3 16 км 10/0 2100 m
[Ac]
+15.0 +7.0 59 +14 +14 985.1
З 3 16 км 10/5 1800 m
[Ac]
+14.0 +7.0 63 +13 +13 985.1
З 2 16 км 10/8 1500 m
[Ac]
+14.0 +7.0 63 +14 +14 985.1
ЮЗ 3 16 км 10/10 1500 м +14.0 +7.0 63 +13 +13 985.4
ЮЗ 3 16 км 10/10 1500 м +14.0 +7.0 63 +13 +13 985.1
З 3 16 км 10/10 1440 м +14.0 +7.0 63 +13 +13 985.4
З 3 16 км 10/10 1320 м +14.0 +7.0 63 +13 +13 985.4
СЗ 4 16 км 10/10 1320 м +14.0 +7.0 63 +13 +13 985.7
С 3 16 км 10/10 1320 м +12.0 +8.0 76 +10 +10 985.7
Местоположение метеостанции Mount Sterling-Montgomery County Airport: широта 38.0575 долгота -83.9829 высота над уровнем моря 311 м.
В архиве по умолчанию представлена погода в Маунт Стерлинг за последние 1-2 суток. Обновление информации о фактической погоде в базе происходит ежечасно! Архивные данные за месяц целиком и за предыдущие месяцы Вы можете получить, выбрав интересующий диапазон дат из раскрывающегося списка и нажав кнопку "Ввод!".
Внимание! Архив погоды МЕТАР в базе сайта по станциям, не включенным в климатический монитор, хранится не более 60 дней. Нет смысла пытаться выбрать более раннюю дату.
*Определитесь, кто Вы:
Внимание! Время в таблицах - местное (без учета летнего времени). Для получения всемирного времени необходимо вычесть поправку, которая равна -5 ч.
Смотрите также архив погоды в соседних городах и на ближайших метеорологических станциях:
Партнеры нашего сайта:      
Пояснения к столбцам:
  • Ветер - указаны скорость ветра в м/с - средняя за 10 мин, порывы в срок и между сроками (в фигурных скобках) и направление, откуда дует ветер: С - северный,
  • СВ - северо-восточный, В - восточный, ЮВ - юго-восточный, Ю - южный, ЮЗ - юго-западный, З - западный, СЗ - северо-западный.
  • Видимость - горизонтальная дальность видимости в метрах или километрах. При видимости от 1 до 10 км при отсутствии осадков обычно наблюдается дымка, при ухудшении видимости до 1 км и менее - туман. В сухую погоду видимость может ухудшаться дымом, пылью или мглою.
  • Явления - указаны атмосферные явления, наблюдавшиеся в срок или в последний час перед сроком; фигурными скобками обозначены явления, наблюдавшиеся между сроками (за 1-3 часа до срока); квадратными скобками обозначены град или гололедные отложения с указанием их диаметра в мм.
  • Облачность - указаны через наклонную черту общая и нижняя облачность в баллах и высота нижней границы облаков в метрах; квадратными скобками обозначены формы облаков: Ci - перистые, Cs - перисто-слоистые, Cc - перисто-кучевые, Ac - высококучевые, As - высокослоистые, Sc - слоисто-кучевые, Ns - слоисто-дождевые, Cu - кучевые, Cb - кучево-дождевые. Подробнее классификацию облаков см. в Атласе облаков (PDF).
  • T - Температура воздуха - температура, измеренная на высоте 2 м над землей.
  • Td - Температура точки росы - температура, при понижении до которой содержащийся в воздухе водяной пар достигнет насыщения.
  • f - Относительная влажность воздуха - влажноcть воздуха, измеренная на высоте 2 м над землей.
  • Te - Эффективная температура - температура, которую ощущает одетый по сезону человек в тени. Характеристика душности погоды. При расчете учитывается влияние влажности воздуха и скорости ветра на теплоощущения человека.
  • Tes - Эффективная температура на солнце - температура, которую ощущает человек, с поправкой на солнечный нагрев. Характеристика знойности погоды. Зависит от высоты солнца над горизонтом, облачности и скорости ветра. Ночью, в пасмурную погоду, а также при ветре 12 м/с и более поправка равна нулю.
  • P - Атмосферное давление - приведенное к уровню моря атмосферное давление.
  • Po - Атмосферное давление - измеренное на уровне метеостанции атмосферное давление.
  • Tmin - Минимальная температура - минимум температуры воздуха на высоте 2 м над землей.
  • Tmax - Максимальная температура - максимум температуры воздуха на высоте 2 м над землей.
  • R - Количество осадков - Количество выпавших осадков за период времени, мм. При наведении курсора мыши на число - период времени, за который выпало указанное количество осадков.
  • R24 - Количество осадков - Количество выпавших осадков за 24 часа, мм.
  • S - Снежный покров - Высота снежного покрова, см. При наведении курсора мыши на число - состояние снежного покрова и степень покрытия местности в баллах.